SCP
0 0 0 0 0 0 0 0 0 0 0 0 0 0 0 0 0 0 0 0 1 1 1 1 1 0 0 0 0 0 0 0 0 0 0 0 0 0 0 0 0 0 0 0
0 0 0 0 0 0 0 0 0 0 0 0 0 0 0 0 0 0 0 0 1 1 1 1 1 1 0 0 0 0 0 0 0 0 0 0 0 0 0 0 0 0 0 0
0 0 0 0 0 0 0 0 0 0 0 0 0 0 0 0 0 0 0 0 0 1 1 1 1 1 1 0 0 0 0 0 0 0 0 0 0 0 0 0 0 0 0 0
0 0 0 0 0 0 0 0 0 0 0 0 0 0 0 0 0 0 0 0 0 1 1 1 1 1 1 1 0 0 0 0 0 0 0 0 0 0 0 1 1 1 0 0
0 0 0 0 0 0 0 0 0 0 0 0 0 0 0 0 0 0 0 0 0 0 1 1 1 1 1 1 0 0 0 0 0 0 0 0 0 1 1 1 1 1 0 0
0 0 0 0 0 0 0 0 0 0 0 0 0 0 0 0 0 0 0 0 0 0 1 1 2 2 2 1 1 1 0 0 0 1 1 1 1 1 1 1 1 1 1 1
0 0 0 0 0 0 0 0 0 0 0 0 0 0 0 0 1 1 1 1 1 1 1 2 3 3 3 2 2 1 1 1 1 1 1 1 1 1 1 1 1 1 1 1
0 0 0 0 0 0 0 0 0 0 0 0 0 1 1 1 1 1 1 1 1 1 2 2 3 3 4 3 3 2 1 1 1 1 1 1 1 1 1 1 1 1 1 1
1 1 1 0 0 0 0 0 0 0 0 0 0 0 1 1 1 1 1 1 1 2 2 3 3 3 4 4 3 2 2 2 2 1 1 1 1 1 1 1 1 1 1 1
1 1 1 0 0 0 0 0 0 0 0 0 0 0 1 1 1 1 1 1 1 2 2 2 3 3 3 3 3 3 2 2 2 2 1 1 1 1 1 1 1 1 1 1
1 1 1 0 0 0 0 0 0 0 0 0 0 0 0 0 1 1 1 1 1 1 2 2 2 2 3 3 3 3 2 2 2 1 1 1 1 1 1 1 1 0 0 0
1 1 0 0 0 0 0 0 0 0 0 0 0 0 0 0 0 0 0 1 1 1 1 1 1 2 2 2 2 2 2 2 1 1 1 1 1 1 1 0 0 0 0 0
1 1 0 0 0 0 0 0 0 0 0 0 0 0 0 0 0 0 0 0 0 0 1 1 1 1 1 2 2 2 1 1 1 1 1 1 1 1 1 0 0 0 0 0
0 0 0 0 0 0 0 0 0 0 0 0 0 0 0 0 0 0 0 0 0 0 0 0 0 1 1 1 1 1 1 1 1 1 1 1 1 1 1 1 0 0 0 0
0 0 0 0 0 0 0 0 0 0 0 0 0 0 0 0 0 0 0 0 0 0 0 0 0 0 0 1 1 1 0 0 0 0 0 0 0 0 0 0 0 0 0 0
0 0 0 0 0 0 0 0 0 0 0 0 0 0 0 0 0 0 0 0 0 0 0 0 0 0 0 0 0 0 0 0 0 0 0 0 0 0 0 0 0 0 0 0
0 0 0 0 0 0 0 0 0 0 0 0 0 0 0 0 0 0 0 0 0 0 0 0 0 0 0 0 0 0 0 0 0 0 0 0 0 0 0 0 0 0 0 0
0 0 0 0 0 0 0 0 0 0 0 0 0 0 0 0 0 0 0 0 0 0 0 0 0 0 0 0 0 0 0 0 0 0 0 0 0 0 0 0 0 0 0 0
0 0 0 0 0 0 0 0 0 0 0 0 0 0 0 0 0 0 0 0 0 0 0 0 0 0 0 0 0 0 0 0 0 0 0 0 0 0 0 0 0 0 0 0
0 0 0 0 0 0 0 0 0 0 0 0 0 0 0 0 0 0 0 0 0 0 0 0 0 0 0 0 0 0 0 0 0 0 0 0 0 0 0 0 0 0 0 0
0 0 0 0 0 0 0 0 0 0 0 0 0 0 0 0 0 0 0 0 0 0 0 0 0 0 0 0 0 0 0 0 0 0 0 0 0 0 0 0 0 0 0 0
0 0 0 0 0 0 0 0 0 0 0 0 0 0 0 0 0 0 0 0 0 0 0 0 0 0 0 0 0 0 0 0 0 0 0 0 0 0 0 0 0 0 0 0
0 0 0 0 0 0 0 0 0 0 0 0 0 0 0 0 0 0 0 0 0 0 0 0 0 0 0 0 0 0 0 0 0 0 0 0 0 0 0 0 0 0 0 0
0 0 0 0 0 0 0 0 0 0 0 0 0 0 0 0 0 0 0 0 0 0 0 0 0 0 0 0 0 0 0 0 0 0 0 0 0 0 0 0 0 0 0 0
0 0 0 0 0 0 0 0 0 0 0 0 0 0 0 0 0 0 0 0 0 0 0 0 0 0 0 0 0 0 0 0 0 0 0 0 0 0 0 0 0 0 0 0
0 0 0 0 0 0 0 0 0 0 0 0 0 0 0 0 0 0 0 0 0 0 0 0 0 0 0 0 0 0 0 0 0 0 0 0 0 0 0 0 0 0 0 0
0 0 0 0 0 0 0 0 0 0 0 0 0 0 0 0 0 0 0 0 0 0 0 0 0 0 0 0 0 0 0 0 0 0 0 0 0 0 0 0 0 0 0 0
Wind_Speed
12 7 10 13 13 11 10 8 8 7 6 1 3 4 3 4 5 5 6 8 7 7 8 7 6 6 6 6 5 5 5 5 5 5 5 5 5 4 4 5 7 5 5 6
14 11 11 13 12 10 9 8 7 6 3 5 5 3 2 0 2 4 5 7 9 9 10 9 8 8 7 7 6 6 5 5 5 4 4 5 5 5 5 5 5 5 6 7
13 12 10 9 9 9 7 5 4 3 1 2 1 2 1 1 3 3 4 5 7 9 10 10 10 9 8 8 7 7 7 6 6 5 6 5 6 5 5 5 5 5 6 7
12 13 15 5 2 4 4 3 3 3 2 2 2 1 2 3 3 2 2 4 5 7 9 10 10 10 9 9 8 8 8 8 7 6 6 6 5 5 5 4 5 5 6 7
10 13 11 6 6 6 6 6 7 5 5 6 5 4 2 2 0 1 3 3 4 6 9 10 11 11 11 9 9 9 9 8 8 7 6 5 5 5 5 5 5 6 7 7
11 13 13 2 3 1 1 2 9 8 8 9 7 5 3 3 2 3 2 1 3 5 6 8 10 10 11 11 10 10 9 8 7 6 6 5 5 5 5 5 6 7 8 7
12 13 5 6 3 1 2 2 8 8 8 8 7 6 7 7 7 5 4 2 1 2 3 4 7 8 9 9 9 9 7 7 7 6 6 6 6 5 6 7 7 8 8 8
8 9 2 8 6 5 4 4 8 10 10 10 9 10 10 10 10 10 8 7 5 2 2 1 4 6 7 7 5 4 5 6 6 6 7 7 7 6 7 7 8 9 9 10
1 2 6 6 6 3 3 5 7 9 10 10 10 11 11 12 11 11 11 9 8 6 4 3 0 3 5 5 4 5 5 6 6 6 6 6 6 7 8 8 9 9 8 7
2 7 8 7 6 6 6 6 8 9 10 11 11 12 12 11 11 12 12 11 10 10 8 6 4 2 2 3 4 5 6 6 6 6 7 8 7 8 9 9 8 7 6 5
1 8 10 7 5 7 9 9 10 10 12 12 12 12 12 11 11 11 11 11 10 10 8 8 7 5 3 2 2 4 5 6 7 8 9 8 9 9 9 8 8 7 6 5
3 5 7 8 6 7 9 9 9 10 11 12 12 12 11 10 10 10 11 10 10 10 9 9 8 7 6 4 3 4 6 7 8 8 8 9 9 9 14 15 15 16 15 12
6 6 10 9 8 8 8 8 9 10 10 10 10 10 10 9 9 9 10 10 10 10 9 8 8 7 8 6 5 6 7 8 9 10 10 9 8 7 7 9 15 16 17 17
8 7 9 9 9 8 8 8 8 9 9 9 9 9 9 9 8 9 9 9 10 10 9 9 9 9 9 8 7 7 10 11 11 9 10 10 9 8 7 7 7 6 11 17
6 8 9 9 8 8 7 7 7 8 8 8 8 8 9 9 9 9 9 9 9 10 10 10 10 9 8 9 9 10 11 10 10 10 11 10 9 9 9 8 8 6 5 6
8 9 9 9 8 7 7 7 7 7 8 8 8 9 9 9 9 9 9 9 10 10 10 9 8 8 9 10 10 10 9 14 13 11 12 11 9 9 8 7 7 6 5 5
8 8 7 7 6 5 5 6 7 8 9 9 10 10 10 10 10 9 9 10 10 9 9 8 7 8 10 10 11 11 11 13 15 13 11 10 9 9 8 7 6 6 6 4
11 10 7 5 4 4 6 7 8 9 9 10 11 11 10 10 10 10 10 11 11 10 9 7 8 9 10 10 9 10 11 12 12 12 11 10 10 9 9 8 7 6 6 4
7 6 3 2 3 4 6 8 8 9 9 10 10 10 10 10 10 10 10 11 11 9 7 8 10 10 11 9 11 9 12 13 13 12 11 11 10 9 8 7 6 5 6 4
3 1 2 4 5 7 8 9 10 9 10 10 10 10 10 11 11 11 10 10 7 7 7 9 10 10 10 9 12 12 13 14 14 12 11 10 10 8 7 7 7 5 4 3
2 4 5 7 8 9 10 10 10 10 10 10 10 10 10 10 11 11 10 10 5 5 8 9 7 7 9 11 14 13 13 13 13 12 11 10 9 9 8 6 5 5 3 3
5 6 8 9 10 10 9 10 11 12 11 10 11 11 11 11 11 10 8 6 5 5 7 8 8 9 12 14 13 13 13 12 11 10 10 10 9 8 7 6 5 4 4 3
7 8 9 10 10 11 11 11 12 11 10 11 11 11 11 10 9 9 8 5 6 8 8 7 8 11 14 12 11 12 12 11 10 10 10 9 8 6 5 5 4 3 3 3
8 9 10 10 11 12 12 12 11 9 11 11 11 9 9 8 7 7 6 5 7 8 7 6 8 11 12 9 9 9 10 10 10 9 9 8 7 7 6 5 4 4 4 5
10 11 11 11 11 10 10 10 11 10 11 8 9 9 8 7 7 7 7 7 7 8 8 6 8 11 9 9 9 8 8 8 9 9 8 8 8 7 6 6 6 6 5 5
9 9 9 9 9 8 9 9 8 8 8 9 8 8 8 8 8 7 6 8 10 8 7 7 8 8 8 8 8 8 8 8 8 8 9 8 8 8 7 7 8 6 5 5
10 9 7 7 7 7 8 8 8 9 9 9 9 9 9 8 7 8 9 8 8 8 7 7 7 7 7 8 8 8 7 7 8 8 8 8 7 7 7 8 6 6 6 6
Wind_Direction
289 253 232 244 252 259 264 272 280 293 300 293 149 142 150 174 180 189 174 173 176 167 159 167 173 173 180 190 188 191 189 202 206 207 214 223 232 237 243 252 265 266 270 272
292 283 270 273 272 274 274 275 278 284 311 50 79 87 91 191 206 197 193 194 184 179 174 177 182 186 190 192 189 180 194 211 214 212 220 226 231 237 242 246 254 260 268 272
285 293 289 283 298 302 297 293 291 294 25 66 101 95 91 280 258 228 211 205 192 183 181 180 185 188 193 190 188 186 193 207 213 212 220 225 237 243 248 257 263 262 264 267
280 283 280 287 274 288 290 316 337 359 11 36 74 98 231 245 266 274 249 221 192 184 180 181 185 188 191 191 190 195 198 206 210 213 222 223 227 237 244 249 257 262 264 267
275 278 276 296 344 349 357 3 8 30 31 32 27 333 357 83 99 257 252 218 193 198 198 185 187 186 185 196 194 199 204 205 209 212 218 223 232 237 242 247 255 260 264 261
265 275 288 331 138 224 332 359 7 29 21 8 355 339 44 51 329 294 273 240 205 211 211 184 182 181 184 195 199 204 206 203 203 204 210 222 234 241 246 249 256 263 263 259
264 272 291 45 93 185 209 50 354 8 12 358 5 348 349 352 0 359 353 337 283 235 222 192 176 177 188 198 204 204 202 199 196 196 202 216 226 230 238 246 254 259 265 265
256 274 351 13 35 51 45 18 8 4 5 6 2 1 4 10 17 14 4 359 355 351 324 234 174 176 193 207 206 202 203 205 203 200 214 221 214 223 233 242 254 256 255 257
272 164 126 85 97 109 72 45 21 14 14 14 15 17 19 23 22 21 18 11 6 5 358 0 13 182 204 205 199 209 210 212 214 215 218 225 228 234 238 238 246 254 255 255
32 99 104 102 105 94 76 62 48 38 32 31 31 30 29 29 25 21 19 14 11 10 10 8 359 322 244 218 205 212 222 224 226 229 232 233 232 237 241 245 247 251 255 264
180 123 115 92 87 88 77 64 54 48 45 40 37 34 33 33 27 22 19 16 14 10 5 3 358 349 336 308 251 242 245 246 248 247 245 243 239 238 240 244 247 250 261 267
95 131 123 128 118 92 83 76 68 56 49 42 38 32 32 31 26 21 18 15 12 6 4 0 356 351 344 337 319 286 270 264 262 259 255 251 248 245 232 232 237 230 230 236
84 91 107 113 97 86 85 76 72 65 53 42 35 26 25 21 18 16 13 10 6 358 354 351 349 350 350 350 338 315 295 284 275 272 270 266 260 255 256 241 235 236 234 234
91 97 103 91 81 68 60 56 55 54 44 34 27 19 14 9 5 4 3 359 356 350 350 352 350 352 352 351 344 328 310 295 284 277 276 275 270 264 260 261 259 245 231 228
112 111 108 97 82 68 52 42 35 32 24 16 12 7 1 357 352 351 351 349 348 342 347 345 341 346 350 345 337 323 310 300 295 291 286 280 276 271 267 265 266 265 257 229
111 105 102 94 75 54 40 30 18 9 5 1 358 354 350 346 344 341 344 346 344 341 338 333 337 352 350 340 328 314 302 296 298 296 289 283 278 273 271 272 273 271 265 262
126 114 96 81 64 40 18 8 1 356 352 350 348 346 346 343 337 337 342 341 335 330 325 325 347 350 339 330 322 316 312 310 306 299 294 292 289 283 280 276 274 277 276 269
82 81 75 61 29 3 352 352 350 347 345 343 341 340 338 336 333 334 331 327 322 319 320 338 351 339 327 324 321 316 313 310 311 309 306 301 295 288 280 275 275 281 282 266
99 94 80 44 347 335 343 340 336 338 338 334 330 328 328 327 325 325 323 320 315 314 329 339 335 325 320 332 336 320 314 310 307 304 302 300 296 291 289 283 277 273 275 278
103 78 340 329 337 343 337 334 333 331 328 322 319 319 318 319 320 318 313 307 313 324 327 330 327 322 323 341 340 319 312 309 307 305 305 303 300 297 295 289 285 282 281 283
351 340 335 333 338 335 332 331 326 319 313 312 313 314 315 315 312 307 302 307 322 332 324 319 318 335 343 336 318 313 312 311 310 309 308 306 305 302 297 295 299 299 307 310
340 332 328 327 325 322 322 319 312 308 307 311 313 312 309 303 301 302 303 303 323 353 332 331 346 358 342 324 318 317 318 319 320 319 316 312 307 307 310 319 326 332 338 335
323 322 319 315 314 312 311 308 304 305 309 309 303 298 296 298 301 304 312 339 355 352 338 356 2 350 333 325 326 325 327 329 327 325 326 326 325 325 325 332 342 348 339 343
313 309 306 306 306 303 299 300 303 302 296 291 289 293 298 301 308 319 338 7 11 354 349 16 360 346 331 329 333 336 336 335 331 330 332 332 333 338 342 348 356 354 352 353
299 298 296 296 295 296 304 305 301 296 297 303 310 317 318 323 329 338 343 350 8 360 351 7 7 353 343 343 342 343 341 340 340 337 340 344 347 350 352 359 3 0 358 350
290 288 292 295 294 293 293 297 305 314 319 321 324 327 330 333 337 343 346 352 7 12 3 358 358 353 350 350 351 351 348 343 343 347 349 348 349 350 352 357 357 357 355 355
295 293 290 289 301 309 317 320 318 319 323 327 328 330 335 340 346 350 356 4 11 11 9 6 3 360 359 1 0 358 356 353 352 351 349 351 353 351 352 355 357 355 355 359